Regional Weather Roundup
Issued by NWS

Home | Current Version | Previous Version | Graphics & Text | Print | Product List | Glossary On
Versions: 1 2 3 4 5 6 7 8 9 10 11 12 13 14 15 16 17 18 19 20 21 22 23 24 25 26 27 28 29 30 31 32 33 34 35 36 37 38 39 40 41 42 43 44 45 46 47 48 49 50
000
ASUS43 KFSD 242010
RWRSD

WEATHER ROUNDUP FOR SOUTH DAKOTA
NATIONAL WEATHER SERVICE SIOUX FALLS SD
300 PM CDT SUN MAY 24 2015

NOTE: "FAIR" INDICATES FEW OR NO CLOUDS BELOW 12,000 FEET WITH NO
SIGNIFICANT WEATHER AND/OR OBSTRUCTIONS TO VISIBILITY.


SDZ001>005-009-010-012>017-242100-
NORTHWEST AND NORTH CENTRAL SOUTH DAKOTA

CITY           SKY/WX    TMP DP  RH WIND       PRES   REMARKS
BUFFALO          N/A     56  53  90 NE16      29.90F
FAITH            N/A     61  49  64 E16       29.91F
MOBRIDGE       CLOUDY    71  51  49 E15G24    29.89F
$$

SDZ012>016-024>037-041>051-057-063-072>074-242100-
SOUTHWEST AND SOUTH CENTRAL SOUTH DAKOTA

CITY           SKY/WX    TMP DP  RH WIND       PRES   REMARKS
RAPID CTY ARPT RAIN      55  54  96 E12       29.90F FOG
PIERRE         CLOUDY    62  56  80 E20       29.86F
CUSTER         CLOUDY    52  46  80 NE8       29.93S
ELLSWORTH AFB  RAIN      54  54 100 E12       29.89  FOG
PHILIP         LGT RAIN  58  57  97 E10       29.87F FOG
PINE RIDGE     PTSUNNY   62  53  72 VRB5      29.85S
SPEARFISH      LGT RAIN  50  50 100 E13       29.94S
WINNER         CLOUDY    60  57  89 NE8       29.86F FOG
$$

SDZ004>011-016>023-039-040-242100-
NORTHEAST SOUTH DAKOTA

CITY           SKY/WX    TMP DP  RH WIND       PRES   REMARKS
ABERDEEN       CLOUDY    66  53  63 E12       29.90F
WATERTOWN      LGT RAIN  59  56  89 E12       29.90F FOG
BROOKINGS      CLOUDY    61  57  88 E10       29.89S
SISSETON         N/A     65  57  75 SE13      29.91F
$$

SDZ017-020-022-023-036>040-048>070-242100-
SOUTHEAST SOUTH DAKOTA

CITY           SKY/WX    TMP DP  RH WIND       PRES   REMARKS
SIOUX FALLS    CLOUDY    62  60  93 E10       29.84S
HURON          CLOUDY    63  58  83 E10       29.86F
CHAMBERLAIN    CLOUDY    60  57  89 E6        29.86F
MITCHELL       CLOUDY    63  61  93 E12       29.85S
YANKTON        CLOUDY    63  57  82 E5        29.82S
$$

ABBREVIATIONS USED IN REMARKS
   TC - TEMPERATURE IN CELSIUS
  WCI - WIND CHILL INDEX
   HX - HEAT INDEX
  VSB - VISIBILITY



USA.gov is the U.S. government's official web portal to all federal, state and local government web resources and services.